Location: Saratoga Springs
(43.0831°N, 73.7850°W)
Time: 00:38:13
(UTC-05:00)

Tiangong - Visible Passes

Search period start: 04 March 2024 00:00
Search period end: 14 March 2024 01:00
Orbit: 375 x 384 km, 41.5° (Epoch: 03 March)

Date Brightness Start Highest point End Pass type
(mag) Time Alt. Az. Time Alt. Az. Time Alt. Az.
04 Mar -2.1 19:06:37 10° W 19:09:42 65° S 19:10:33 42° ESE visible
05 Mar -1.0 19:41:45 10° W 19:44:06 39° SW 19:44:06 39° SW visible
06 Mar -1.9 18:40:09 10° W 18:43:13 60° S 18:45:29 16° ESE visible
06 Mar 1.0 20:17:02 10° W 20:17:35 13° WSW 20:17:35 13° WSW visible
07 Mar -1.1 19:15:12 10° W 19:18:06 36° SSW 19:18:57 30° SSE visible
08 Mar 0.3 19:50:37 10° WSW 19:52:23 17° SW 19:52:23 17° SW visible
09 Mar -0.4 18:48:27 10° W 18:51:07 26° SSW 18:53:44 10° SE visible
10 Mar 0.7 20:24:32 10° SW 20:25:31 11° SSW 20:26:30 10° SSW visible
